This demonstration page uses our WeatherBlox Daily Observations layout. Learn more.

Left ArrowRight Arrow

31.84235, -102.49876

Hourly Observations for March 8, 2017

Temp ( °F °C ) Dew Point ( °F °C ) Humidity (%) Winds ( mph kmh ) Pressure ( in mb ) Visibility ( mi km ) Precip ( " mm )
12:53 am 00:53 Clear 49 9.4 17 -8.3 28 28 SE 9 15 30.21 1023 10 16 0.00 0.00
1:53 am 01:53 Clear 47 8.3 18 -7.8 31 31 SE 9 15 30.20 1023 10 16 0.00 0.00
2:53 am 02:53 Clear 45 7.2 19 -7.2 35 35 SSE 8 13 30.19 1022 10 16 0.00 0.00
3:53 am 03:53 Clear 50 10 23 -5 35 35 SSE 10 17 30.17 1022 10 16 0.00 0.00
4:53 am 04:53 Partly Cloudy 51 10.6 25 -3.9 36 36 SSE 13 20 30.16 1021 10 16 0.00 0.00
5:00 am 05:00 Mostly Cloudy 51 10.6 25 -3.9 36 36 SSE 13 20 30.21 1023 10 16 0.00 0.00
5:23 am 05:23 Mostly Clear 50 10 26 -3.3 39 39 SSE 10 17 30.24 1024 10 16 0.00 0.00
5:53 am 05:53 Clear 50 10 27 -2.8 41 41 SSE 12 19 30.17 1022 10 16 0.00 0.00
6:53 am 06:53 Clear 48 8.9 28 -2.2 46 46 S 9 15 30.19 1022 10 16 0.00 0.00
7:46 am 07:46 Mostly Cloudy 49 9.4 29 -1.7 46 46 S 8 13 30.27 1025 10 16 0.00 0.00
7:53 am 07:53 Mostly Cloudy 50 10 29 -1.7 44 44 S 8 13 30.20 1023 10 16 0.00 0.00
8:32 am 08:32 Partly Cloudy 54 12.2 39 3.9 57 57 S 12 19 30.24 1024 10 16 0.00 0.00
8:46 am 08:46 Mostly Cloudy 55 12.8 41 5 59 59 SSW 10 17 30.24 1024 10 16 0.00 0.00
8:53 am 08:53 Mostly Cloudy 56 13.3 41 5 57 57 S 12 19 30.20 1023 10 16 0.00 0.00
9:48 am 09:48 Partly Cloudy 61 16 45 7 55 55 SSW 17 28 30.18 1022 10 16 0.00 0.00
9:53 am 09:53 Mostly Sunny 61 16.1 45 7.2 56 56 S 17 28 30.20 1023 10 16 0.00 0.00
10:35 am 10:35 Partly Cloudy 65 18.3 45 7.2 49 49 S 15 24 30.18 1022 10 16 0.00 0.00
10:53 am 10:53 Partly Cloudy 66 18.9 46 7.8 49 49 S 15 24 30.18 1022 10 16 0.00 0.00
11:53 am 11:53 Sunny 69 20.6 47 8.3 45 45 S 14 22 30.16 1022 10 16 0.00 0.00
12:12 pm 12:12 Mostly Sunny 71 21.7 46 7.8 41 41 S 10 17 30.09 1019 10 16 0.00 0.00
12:53 pm 12:53 Sunny 74 23.3 47 8.3 38 38 SSW 10 17 30.13 1020 10 16 0.00 0.00
1:53 pm 13:53 Mostly Sunny 75 23.9 47 8.3 37 37 SSW 10 17 30.09 1019 10 16 0.00 0.00
2:53 pm 14:53 Mostly Sunny 78 25.6 45 7.2 31 31 SSW 8 13 30.06 1018 10 16 0.00 0.00
3:53 pm 15:53 Sunny 80 26.7 42 5.6 26 26 S 13 20 30.03 1017 10 16 0.00 0.00
4:50 pm 16:50 Mostly Sunny 81 27 39 4 23 23 S 8 13 29.91 1013 10 16 0.00 0.00
4:53 pm 16:53 Partly Cloudy 80 26.7 38 3.3 22 22 S 8 13 30.01 1016 10 16 0.00 0.00
5:53 pm 17:53 Sunny 79 26.1 39 3.9 24 24 S 10 17 30.00 1016 10 16 0.00 0.00
6:19 pm 18:19 Mostly Sunny 79 26.1 41 5 26 26 S 7 11 29.91 1013 10 16 0.00 0.00
6:53 pm 18:53 Clear 75 23.9 42 5.6 31 31 SSE 7 11 30.01 1016 10 16 0.00 0.00
7:53 pm 19:53 Clear 73 22.8 48 8.9 41 41 S 12 19 30.03 1017 10 16 0.00 0.00
8:53 pm 20:53 Clear 70 21.1 51 10.6 51 51 S 13 20 30.05 1018 10 16 0.00 0.00
9:53 pm 21:53 Clear 68 20 55 12.8 63 63 S 17 28 30.06 1018 10 16 0.00 0.00
10:53 pm 22:53 Clear 65 18.3 56 13.3 73 73 SSE 17 28 30.06 1018 10 16 0.00 0.00
11:53 pm 23:53 Clear 63 17.2 57 13.9 81 81 S 14 22 30.06 1018 10 16 0.00 0.00

Powered by AerisWeather